Weather History for Mammoth, CA

Change the Weather History Date:

Saturday, September 21, 2013

  Actual Average Record
Temperature  
Mean Temperature 52 °F -  
Max Temperature 66 °F 67 °F 80 °F (2003)
Min Temperature 37 °F 49 °F 32 °F (2010)
Degree Days  
Heating Degree Days 14    
Growing Degree Days 2 (Base 50)    
Moisture  
Dew Point 26 °F    
Average Humidity 45    
Maximum Humidity 93    
Minimum Humidity 14    
Precipitation  
Precipitation 0.07 in - - ()
Sea Level Pressure  
Sea Level Pressure 29.92 in    
Wind  
Wind Speed 10 mph (South)    
Max Wind Speed 30 mph    
Max Gust Speed 40 mph    
Visibility 10 miles    
Events Rain    
Averages and records for this station are not official NWS values.
T = Trace of Precipitation, MM = Missing Value Source: NWS Daily Summary

Daily Weather History Graph

Daily Weather History Graph

Search for Another Location

Airport:

Trip Planner

Search our weather history database for the weather conditions in past years. The results will help you decide how hot, cold, wet, or windy it might be!

Date:

Astronomy

Sep. 21, 2013 Rise Set
Actual Time 6:42 AM PDT 6:53 PM PDT
Civil Twilight 6:16 AM PDT 7:19 PM PDT
Nautical Twilight 5:45 AM PDT 7:49 PM PDT
Astronomical Twilight 5:14 AM PDT 8:20 PM PDT
Moon 8:11 PM PDT 9:02 AM PDT
Length of Visible Light 13h 03m
Length of Day
12h 10m
Waning Gibbous, 94% of the Moon is Illuminated
Sep 21
Waning Gibbous
Sep 26
Last Quarter
Oct 4
New
Oct 11
First Quarter
Oct 18
Full

Hourly Weather History & Observations

Time (PDT) Temp. Windchill Dew Point Humidity Pressure Visibility Wind Dir Wind Speed Gust Speed Precip Events Conditions
12:15 AM 48.2 °F - 24.8 °F 40% 30.01 in 10.0 mi SE 6.9 mph - N/A   Clear
12:35 AM 48.2 °F - 23.0 °F 37% 30.01 in 10.0 mi ENE 3.5 mph - N/A   Clear
12:55 AM 55.4 °F - 12.2 °F 18% 30.00 in 10.0 mi WSW 15.0 mph 19.6 mph N/A   Clear
1:15 AM 55.4 °F - 15.8 °F 21% 30.01 in 10.0 mi South 6.9 mph 19.6 mph N/A   Clear
1:35 AM 51.8 °F - 17.6 °F 26% 30.01 in 10.0 mi SSE 10.4 mph 26.5 mph N/A   Clear
1:55 AM 50.0 °F - 23.0 °F 35% 30.00 in 10.0 mi South 6.9 mph - N/A   Clear
2:15 AM 48.2 °F - 24.8 °F 40% 30.01 in 10.0 mi South 9.2 mph - N/A   Clear
2:35 AM 50.0 °F - 21.2 °F 32% 29.99 in 10.0 mi ESE 3.5 mph 23.0 mph N/A   Clear
2:55 AM 48.2 °F - 24.8 °F 40% 29.99 in 10.0 mi SE 8.1 mph - N/A   Clear
3:15 AM 50.0 °F - 24.8 °F 37% 29.99 in 10.0 mi South 8.1 mph 23.0 mph N/A   Clear
3:35 AM 55.4 °F - 10.4 °F 17% 29.99 in 10.0 mi SW 19.6 mph 32.2 mph N/A   Clear
3:55 AM 50.0 °F - 21.2 °F 32% 29.98 in 10.0 mi South 13.8 mph 26.5 mph N/A   Clear
4:15 AM 53.6 °F - 17.6 °F 24% 29.99 in 10.0 mi ESE 10.4 mph 21.9 mph N/A   Clear
4:35 AM 46.4 °F 41.9 °F 26.6 °F 46% 29.98 in 10.0 mi South 9.2 mph 16.1 mph N/A   Clear
4:55 AM 44.6 °F 39.2 °F 26.6 °F 49% 29.97 in 10.0 mi ESE 10.4 mph - N/A   Clear
5:15 AM 46.4 °F 40.7 °F 24.8 °F 43% 29.96 in 10.0 mi ESE 12.7 mph 17.3 mph N/A   Clear
5:35 AM 48.2 °F - 21.2 °F 34% 29.96 in 10.0 mi ESE 8.1 mph 18.4 mph N/A   Clear
5:55 AM 46.4 °F 43.5 °F 23.0 °F 40% 29.95 in 10.0 mi ESE 5.8 mph - N/A   Clear
6:15 AM 46.4 °F 41.9 °F 23.0 °F 40% 29.94 in 10.0 mi NNE 9.2 mph - N/A   Clear
6:35 AM 44.6 °F 37.8 °F 26.6 °F 49% 29.95 in 10.0 mi East 15.0 mph - N/A   Clear
6:55 AM 44.6 °F 40.2 °F 26.6 °F 49% 29.95 in 10.0 mi SE 8.1 mph 20.7 mph N/A   Clear
7:15 AM 44.6 °F 39.2 °F 24.8 °F 46% 29.95 in 10.0 mi South 10.4 mph - N/A   Clear
7:35 AM 46.4 °F 41.9 °F 24.8 °F 43% 29.95 in 10.0 mi East 9.2 mph - N/A   Clear
7:55 AM 48.2 °F - 23.0 °F 37% 29.95 in 10.0 mi SSE 9.2 mph - N/A   Clear
8:15 AM 51.8 °F - 21.2 °F 30% 29.94 in 10.0 mi SE 10.4 mph - N/A   Clear
8:35 AM 51.8 °F - 23.0 °F 33% 29.94 in 10.0 mi SE 4.6 mph - N/A   Clear
8:55 AM 55.4 °F - 23.0 °F 29% 29.94 in 10.0 mi ESE 6.9 mph 16.1 mph N/A   Clear
9:15 AM 57.2 °F - 19.4 °F 23% 29.94 in 10.0 mi ESE 8.1 mph - N/A   Clear
9:35 AM 59.0 °F - 21.2 °F 23% 29.94 in 10.0 mi ESE 10.4 mph - N/A   Clear
9:55 AM 60.8 °F - 21.2 °F 22% 29.93 in 10.0 mi East 5.8 mph - N/A   Clear
10:15 AM 64.4 °F - 19.4 °F 18% 29.93 in 10.0 mi SE 5.8 mph - N/A   Clear
10:35 AM 64.4 °F - 14.0 °F 14% 29.92 in 10.0 mi Calm Calm - N/A   Clear
10:55 AM 64.4 °F - 14.0 °F 14% 29.91 in 10.0 mi Calm Calm - N/A   Clear
11:15 AM 64.4 °F - 15.8 °F 15% 29.91 in 10.0 mi SSW 18.4 mph 25.3 mph N/A   Clear
11:35 AM 66.2 °F - 19.4 °F 17% 29.90 in 10.0 mi SSW 24.2 mph 33.4 mph N/A   Clear
11:55 AM 64.4 °F - 19.4 °F 18% 29.91 in 10.0 mi SSW 27.6 mph 36.8 mph N/A   Clear
12:15 PM 64.4 °F - 21.2 °F 19% 29.90 in 10.0 mi SW 29.9 mph 36.8 mph N/A   Clear
12:35 PM 64.4 °F - 21.2 °F 19% 29.91 in 10.0 mi SSW 25.3 mph 35.7 mph N/A   Clear
12:55 PM 64.4 °F - 19.4 °F 18% 29.91 in 10.0 mi SSW 15.0 mph 26.5 mph N/A   Clear
1:15 PM 66.2 °F - 17.6 °F 15% 29.90 in 10.0 mi SSW 13.8 mph 28.8 mph N/A   Clear
1:35 PM 64.4 °F - 21.2 °F 19% 29.90 in 10.0 mi SW 13.8 mph 20.7 mph N/A   Clear
1:55 PM 62.6 °F - 24.8 °F 24% 29.90 in 10.0 mi West 19.6 mph 26.5 mph N/A   Scattered Clouds
2:15 PM 59.0 °F - 30.2 °F 34% 29.90 in 10.0 mi West 21.9 mph 40.3 mph N/A   Mostly Cloudy
2:35 PM 57.2 °F - 28.4 °F 33% 29.91 in 10.0 mi SW 15.0 mph 32.2 mph N/A Rain Light Rain
2:55 PM 57.2 °F - 28.4 °F 33% 29.90 in 10.0 mi SW 16.1 mph 25.3 mph N/A   Overcast
3:15 PM 55.4 °F - 26.6 °F 33% 29.89 in 10.0 mi South 8.1 mph 21.9 mph N/A   Overcast
3:35 PM 55.4 °F - 30.2 °F 38% 29.89 in 10.0 mi SW 16.1 mph 26.5 mph N/A Rain Light Rain
3:55 PM 55.4 °F - 30.2 °F 38% 29.88 in 10.0 mi SSW 15.0 mph 24.2 mph N/A Rain Light Rain
4:15 PM 53.6 °F - 33.8 °F 47% 29.87 in 10.0 mi South 6.9 mph 20.7 mph N/A Rain Light Rain
4:35 PM 57.2 °F - 28.4 °F 33% 29.85 in 10.0 mi South 17.3 mph 23.0 mph N/A   Overcast
4:55 PM 53.6 °F - 24.8 °F 33% 29.83 in 10.0 mi South 11.5 mph 21.9 mph N/A   Mostly Cloudy
5:15 PM 53.6 °F - 23.0 °F 30% 29.83 in 10.0 mi South 11.5 mph 27.6 mph N/A   Overcast
5:35 PM 51.8 °F - 30.2 °F 44% 29.84 in 10.0 mi South 20.7 mph 26.5 mph N/A Rain Light Rain
5:55 PM 50.0 °F - 32.0 °F 50% 29.83 in 10.0 mi South 10.4 mph 29.9 mph N/A Rain Rain
6:15 PM 46.4 °F 41.1 °F 37.4 °F 71% 29.85 in 10.0 mi NW 11.5 mph 20.7 mph N/A Rain Light Rain
6:35 PM 42.8 °F 36.6 °F 37.4 °F 81% 29.84 in 10.0 mi NW 11.5 mph 19.6 mph N/A Rain Light Rain
6:55 PM 41.0 °F 36.4 °F 39.2 °F 93% 29.85 in 7.0 mi WNW 6.9 mph - N/A Rain Rain
7:15 PM 41.0 °F 35.8 °F 39.2 °F 93% 29.85 in 7.0 mi NW 8.1 mph 16.1 mph 0.02 in Rain Rain
7:35 PM 41.0 °F 37.1 °F 39.2 °F 93% 29.86 in 7.0 mi WNW 5.8 mph - 0.03 in Rain Rain
7:55 PM 41.0 °F 37.1 °F 39.2 °F 93% 29.85 in 10.0 mi South 5.8 mph - 0.03 in   Light Drizzle
8:15 PM 41.0 °F 35.8 °F 37.4 °F 87% 29.87 in 10.0 mi NNW 8.1 mph - N/A   Drizzle
8:35 PM 39.2 °F 30.5 °F 37.4 °F 93% 29.88 in 5.0 mi WNW 16.1 mph 26.5 mph N/A Rain Rain
8:55 PM 39.2 °F 31.2 °F 37.4 °F 93% 29.87 in 10.0 mi NW 13.8 mph 17.3 mph N/A   Light Drizzle
9:15 PM 39.2 °F 32.5 °F 35.6 °F 87% 29.89 in 2.5 mi NW 10.4 mph - 0.02 in   Overcast
9:35 PM 37.4 °F 29.8 °F 35.6 °F 93% 29.88 in 10.0 mi NW 11.5 mph - 0.02 in   Overcast
9:55 PM 37.4 °F 30.8 °F 35.6 °F 93% 29.90 in 4.0 mi WNW 9.2 mph 17.3 mph 0.03 in Rain Rain
10:15 PM 37.4 °F 30.8 °F 35.6 °F 93% 29.91 in 5.0 mi WNW 9.2 mph - 0.01 in Rain Light Rain
10:35 PM 37.4 °F 27.8 °F 35.6 °F 93% 29.90 in 10.0 mi WNW 17.3 mph 24.2 mph 0.01 in   Overcast
10:55 PM 37.4 °F - 35.6 °F 93% 29.90 in 10.0 mi Calm Calm - 0.01 in   Overcast
11:15 PM 39.2 °F 29.8 °F 30.2 °F 70% 29.89 in 10.0 mi WSW 18.4 mph 25.3 mph N/A   Mostly Cloudy
11:35 PM 39.2 °F 31.6 °F 28.4 °F 65% 29.88 in 10.0 mi West 12.7 mph 32.2 mph N/A   Scattered Clouds
11:55 PM 39.2 °F 31.2 °F 26.6 °F 61% 29.87 in 10.0 mi WSW 13.8 mph 23.0 mph N/A   Clear